Simultaneous Nadir Overpasses (SNOs) Predictions

Prediction of SNOs between METOP-B and NOAA-19 Satellite Orbit:

Table of predicted SNOs for the next 14.0 days since TLE Epoch: 7/23/2022
Index Date (METOP-B) Time (METOP-B) Lat,Lon (METOP-B) SZA (METOP-B ) Date (NOAA-19) Time (NOAA-19) Lat,Lon (NOAA-19) SZA (NOAA-19 ) Distance(km) Time Diff (sec)
1 07/29/2022 19:05:17 80.87, -72.69 63.69 07/29/2022 19:04:11 80.87, -72.78 63.66 1.58 66
2 07/29/2022 19:55:58 -80.87, 94.72 116.30 07/29/2022 19:55:12 -80.87, 94.76 116.32 1.16 46
3 07/29/2022 20:46:38 80.88, -97.83 63.73 07/29/2022 20:46:10 80.87, -97.97 63.70 2.95 28
4 07/29/2022 21:37:20 -80.86, 69.22 116.30 07/29/2022 21:37:12 -80.87, 69.21 116.30 0.37 8
5 07/29/2022 22:28:01 80.85,-123.68 63.68 07/29/2022 22:28:10 80.87,-123.54 63.71 3.01 9
6 07/29/2022 23:18:42 -80.86, 43.73 116.31 07/29/2022 23:19:12 -80.87, 43.65 116.29 1.86 30
7 07/30/2022 00:09:22 80.86,-148.82 63.72 07/30/2022 00:10:09 80.86,-148.73 63.75 1.63 47



Historial Predications of SNOs between METOP-B and NOAA-19
